User: anonymous   Login
Location: Dunedin
(45.8670°S, 170.5000°E)
Time: 06:32:22
(UTC+13:00)
Language:

Cosmos 2219 Rocket - Orbit

View from above orbital plane
View from above orbital plane
View from above satellite
View from above satellite

Ground track
Ground track

The orbit data is extracted from the following two-line orbital elements,

1 22220U 92076B   19083.23666171 -.00000286  00000-0 -11961-3 0  9994
2 22220  70.9984 141.4205 0012618 359.3002  56.9009 14.16440547362112
Epoch (UTC): 24 March 2019 05:40:47
Eccentricity: 0.0012618
inclination: 70.9984°
perigee height: 828 km
apogee height: 846 km
right ascension of ascending node: 141.4205°
argument of perigee: 359.3002°
revolutions per day: 14.16440547
mean anomaly at epoch: 56.9009°
orbit number at epoch: 36211

The dashed part of the orbit path shows where the satellite is in the earth's shadow,  

DLR